Flag for U.S.A. Weather past 2 weeks in Stillwater, Minnesota, U.S.A.

Now
57 °F

Clear.


Feels Like: 57 °F
Forecast: 54 / 76 °F
Wind: No wind

Location: St. Paul Downtown Holman Field

Current Time: Jul 2, 2015 at 5:14:23 AM

Latest Report: Jul 2, 2015 at 3:53 AM


Visibility: 10 mi

Pressure: 30.00 "Hg

Humidity: 93%

Dew point: 55 °F

Location of StillwaterLocation

Historic Weather in Stillwater — Graph

°F

Stillwater temperature yesterday

Maximum temperature yesterday: 73 °F (at 6:53 PM)
Minimum temperature yesterday: 58 °F (at 4:53 AM)
Average temperature yesterday: 64 °F

Past Weeks' High & Low Weather Summary

 TemperatureHumidityPressure
High84 °F (Jun 21, 3:53 PM)100% (Jun 22, 8:59 AM)30.11 "Hg (Jun 22, 8:59 AM)
Low58 °F (Jun 19, 5:53 AM)36% (Jun 21, 4:53 PM)29.47 "Hg (Jun 22, 9:53 AM)
Average70 °F71%29.93 "Hg
* Reported Jun 17 5:53 AM — Jul 2 2:53 AM, Stillwater, Weather by CustomWeather, © 2015

Note: Actual official high and low records may vary slightly from our data, if they occured in-between our weather recording intervals... More about our weather records

Advertising

Stillwater weather history for previous 24 hours

 ConditionsComfort  
Time TempWeatherWind HumidityBarometerVisibility
2:53 AM
Thu, Jul 2
58 °FClear.No wind87%30.01 "Hg10 mi
1:53 AM58 °FClear.No wind87%30.01 "Hg10 mi
12:53 AM60 °FClear.No wind83%30.00 "Hg10 mi
11:53 PM
Wed, Jul 1
61 °FClear.No wind81%30.00 "Hg10 mi
10:53 PM65 °FClear.No wind68%30.01 "Hg10 mi
9:53 PM64 °FSunny.No wind70%30.01 "Hg10 mi
8:53 PM68 °FSunny.3 mph65%29.99 "Hg10 mi
7:53 PM71 °FSunny.5 mph53%29.98 "Hg10 mi
6:53 PM73 °FPassing clouds.No wind51%29.97 "Hg10 mi
5:53 PM72 °FSunny.3 mph55%29.98 "Hg10 mi
4:53 PM72 °FSunny.No wind52%29.98 "Hg10 mi
3:53 PM71 °FSunny.6 mph55%29.99 "Hg10 mi
2:53 PM69 °FSunny.No wind55%30.00 "Hg10 mi
1:53 PM66 °FSunny.3 mph56%30.01 "Hg10 mi
12:53 PM64 °FSunny.3 mph56%30.01 "Hg10 mi
11:53 AM60 °FSunny.3 mph67%30.02 "Hg10 mi
10:53 AM59 °FPartly sunny.6 mph69%30.02 "Hg10 mi
9:53 AM59 °FSunny.No wind69%30.01 "Hg10 mi
8:53 AM59 °FSunny.6 mph72%30.01 "Hg10 mi
7:53 AM58 °FSunny.6 mph70%29.99 "Hg10 mi
6:53 AM58 °FSunny.3 mph72%29.99 "Hg10 mi
5:53 AM58 °FClear.6 mph72%29.97 "Hg10 mi
Weather by CustomWeather, © 2015

See weather overviewHow to use our weather pages